Location: Gang?ram
(18.7947°N, 79.7467°E)
Time: 05:06:48
(UTC+00:00)

Daily predictions for brighter satellites

Satellite Brightness Start Highest point End
(mag) Time Altitude Azimuth Time Altitude Azimuth Time Altitude Azimuth
Cosmos 1892 Rocket 3.9 00:01:06 10° SSW 00:05:09 39° W 00:09:13 10° NNW
Stardust Del rocket 3.2 00:04:26 10° WSW 00:07:11 69° SSE 00:12:06 10° E
Cosmos 2058 Rocket 4.5 00:03:19 10° NNE 00:07:35 43° E 00:11:48 10° SSE
Spot 2 4.5 00:03:46 10° NNE 00:08:29 86° E 00:13:29 10° SSW
Meteor PRIRODA 4.1 00:05:53 10° N 00:09:18 39° WNW 00:12:44 10° SSW
GPS 2-17 Rocket1 3.2 00:06:55 10° W 00:11:29 76° SSW 00:16:12 10° ESE
PSLV R/B 4.0 00:09:30 10° NNE 00:13:36 88° ESE 00:17:40 10° SSW
CZ-4B R/B 2.4 00:10:44 10° SSW 00:13:42 27° W 00:16:41 10° NW
Delta 128 3.7 00:09:22 10° WNW 00:13:54 81° NNE 00:18:55 10° ESE
Orbus 7S 4.0 00:08:16 10° WNW 00:14:00 61° NNE 00:16:40 10° E
USA 267 4.0 00:09:54 10° NE 00:16:18 57° SE 00:22:41 10° SSW
Cosmos 1980 Rocket 4.0 00:11:20 10° N 00:16:22 34° ENE 00:21:24 10° SE
H-II Stage 2 4.2 00:11:58 10° SW 00:16:32 19° S 00:18:47 10° ESE
SKYMED 2 3.6 00:14:21 10° S 00:18:40 83° WSW 00:23:01 10° NNW
Cosmos 44 Rocket 3.4 00:16:33 10° NNW 00:21:44 77° WSW 00:26:53 10° SSE
Cosmos 614 Rocket 4.5 00:17:11 10° SW 00:21:58 38° WNW 00:26:44 10° N
CZ-3 R/B 3.0 00:17:24 10° W 00:36:13 47° N 00:41:48 10° ENE
